• In Deutschland
  • Länderverzeichnis
  • Für 7 Tage
  • Wassertemperatur
  • Satellitenkarten
  • Wetterkarte
  • Widgets
  • user-avatar
    Anmelden

    Stündliche Wetter Aran

    Heute, 20 Januar, Samstag

    Zeit Temperatur Niederschläge Wind Luftdruck Luftfeuchtigkeit
    00:00 +9°C° 0 mm 2 m/S 754 mmHg 55%
    01:00 +9°C° 0 mm 2 m/S 755 mmHg 56%
    02:00 +8°C° 0 mm 2 m/S 755 mmHg 57%
    03:00 +8°C° 0 mm 2 m/S 755 mmHg 57%
    04:00 +8°C° 0,1 mm 3 m/S 756 mmHg 59%
    05:00 +8°C° 0,1 mm 3 m/S 756 mmHg 61%
    06:00 +8°C° 0,1 mm 3 m/S 757 mmHg 62%
    07:00 +9°C° 0,1 mm 2 m/S 757 mmHg 62%
    08:00 +9°C° 0,1 mm 2 m/S 758 mmHg 63%
    09:00 +10°C° 0,1 mm 1 m/S 759 mmHg 63%
    10:00 +11°C° 0 mm 1 m/S 759 mmHg 59%
    11:00 +12°C° 0 mm 2 m/S 759 mmHg 55%
    12:00 +13°C° 0 mm 2 m/S 759 mmHg 51%
    13:00 +13°C° 0 mm 2 m/S 759 mmHg 50%
    14:00 +13°C° 0 mm 2 m/S 759 mmHg 50%
    15:00 +14°C° 0 mm 2 m/S 759 mmHg 50%
    16:00 +12°C° 0 mm 2 m/S 760 mmHg 56%
    17:00 +10°C° 0 mm 2 m/S 761 mmHg 62%
    18:00 +9°C° 0 mm 2 m/S 761 mmHg 68%
    19:00 +9°C° 0 mm 2 m/S 762 mmHg 70%
    20:00 +8°C° 0 mm 2 m/S 762 mmHg 72%
    21:00 +8°C° 0 mm 2 m/S 762 mmHg 74%
    22:00 +7°C° 0 mm 2 m/S 762 mmHg 74%
    23:00 +8°C° 0 mm 1 m/S 762 mmHg 75%

    Morgen, 21 Januar, Sonntag

    Zeit Temperatur Niederschläge Wind Luftdruck Luftfeuchtigkeit
    00:00 +7°C° 0 mm 1 m/S 762 mmHg 76%
    01:00 +7°C° 0 mm 1 m/S 762 mmHg 75%
    02:00 +7°C° 0 mm 1 m/S 762 mmHg 75%
    03:00 +7°C° 0 mm 1 m/S 762 mmHg 75%
    04:00 +7°C° 0 mm 1 m/S 762 mmHg 73%
    05:00 +6°C° 0 mm 2 m/S 762 mmHg 71%
    06:00 +6°C° 0 mm 2 m/S 762 mmHg 69%
    07:00 +6°C° 0 mm 2 m/S 761 mmHg 64%
    08:00 +7°C° 0 mm 2 m/S 761 mmHg 60%
    09:00 +9°C° 0 mm 1 m/S 761 mmHg 56%
    10:00 +9°C° 0 mm 2 m/S 760 mmHg 51%
    11:00 +12°C° 0 mm 2 m/S 760 mmHg 46%
    12:00 +12°C° 0 mm 3 m/S 759 mmHg 41%
    13:00 +13°C° 0 mm 3 m/S 759 mmHg 40%
    14:00 +13°C° 0 mm 3 m/S 758 mmHg 38%
    15:00 +14°C° 0 mm 3 m/S 758 mmHg 37%
    16:00 +13°C° 0 mm 3 m/S 758 mmHg 40%
    17:00 +12°C° 0 mm 3 m/S 759 mmHg 43%
    18:00 +10°C° 0 mm 3 m/S 759 mmHg 46%
    19:00 +10°C° 0 mm 3 m/S 759 mmHg 45%
    20:00 +10°C° 0 mm 3 m/S 759 mmHg 44%
    21:00 +10°C° 0 mm 3 m/S 759 mmHg 42%
    22:00 +9°C° 0 mm 3 m/S 759 mmHg 41%
    23:00 +9°C° 0 mm 3 m/S 759 mmHg 41%

    übermorgen, 22 Januar, Montag

    Zeit Temperatur Niederschläge Wind Luftdruck Luftfeuchtigkeit
    00:00 +9°C° 0 mm 3 m/S 759 mmHg 40%
    01:00 +9°C° 0 mm 2 m/S 759 mmHg 40%
    02:00 +8°C° 0 mm 2 m/S 759 mmHg 39%
    03:00 +8°C° 0 mm 2 m/S 758 mmHg 39%
    04:00 +9°C° 0 mm 1 m/S 758 mmHg 39%
    05:00 +9°C° 0 mm 1 m/S 758 mmHg 39%
    06:00 +8°C° 0 mm 1 m/S 757 mmHg 40%
    07:00 +9°C° 0 mm 1 m/S 757 mmHg 39%
    08:00 +10°C° 0 mm 1 m/S 757 mmHg 39%
    09:00 +10°C° 0 mm 1 m/S 757 mmHg 38%
    10:00 +11°C° 0 mm 1 m/S 756 mmHg 36%
    11:00 +12°C° 0 mm 1 m/S 755 mmHg 34%
    12:00 +13°C° 0 mm 1 m/S 754 mmHg 32%
    13:00 +13°C° 0 mm 1 m/S 754 mmHg 32%
    14:00 +14°C° 0 mm 1 m/S 753 mmHg 33%
    15:00 +14°C° 0 mm 1 m/S 753 mmHg 33%
    16:00 +13°C° 0 mm 1 m/S 753 mmHg 36%
    17:00 +12°C° 0 mm 1 m/S 753 mmHg 38%
    18:00 +10°C° 0 mm 2 m/S 753 mmHg 41%
    19:00 +10°C° 0 mm 2 m/S 753 mmHg 40%
    20:00 +9°C° 0 mm 2 m/S 753 mmHg 40%
    21:00 +9°C° 0 mm 2 m/S 753 mmHg 39%
    22:00 +9°C° 0 mm 3 m/S 752 mmHg 38%
    23:00 +9°C° 0 mm 3 m/S 752 mmHg 36%

    23 Januar, Dienstag

    Zeit Temperatur Niederschläge Wind Luftdruck Luftfeuchtigkeit
    00:00 +8°C° 0 mm 3 m/S 752 mmHg 35%
    01:00 +8°C° 0 mm 3 m/S 752 mmHg 33%
    02:00 +7°C° 0 mm 4 m/S 752 mmHg 32%
    03:00 +7°C° 0 mm 4 m/S 752 mmHg 30%
    04:00 +7°C° 0 mm 4 m/S 752 mmHg 30%
    05:00 +7°C° 0 mm 4 m/S 752 mmHg 29%
    06:00 +7°C° 0 mm 4 m/S 752 mmHg 29%
    07:00 +8°C° 0 mm 5 m/S 752 mmHg 28%
    08:00 +9°C° 0 mm 5 m/S 752 mmHg 28%
    09:00 +10°C° 0 mm 5 m/S 752 mmHg 28%
    10:00 +12°C° 0 mm 5 m/S 752 mmHg 26%
    11:00 +14°C° 0 mm 5 m/S 752 mmHg 24%
    12:00 +15°C° 0 mm 5 m/S 751 mmHg 22%
    13:00 +15°C° 0 mm 5 m/S 751 mmHg 22%
    14:00 +15°C° 0 mm 5 m/S 751 mmHg 23%
    15:00 +15°C° 0 mm 5 m/S 751 mmHg 24%
    16:00 +14°C° 0 mm 4 m/S 751 mmHg 26%
    17:00 +13°C° 0 mm 4 m/S 752 mmHg 29%
    18:00 +12°C° 0 mm 4 m/S 752 mmHg 32%
    19:00 +12°C° 0 mm 3 m/S 752 mmHg 33%
    20:00 +11°C° 0 mm 3 m/S 753 mmHg 34%
    21:00 +11°C° 0 mm 3 m/S 753 mmHg 35%
    22:00 +11°C° 0 mm 3 m/S 753 mmHg 36%
    23:00 +11°C° 0 mm 3 m/S 753 mmHg 38%

    24 Januar, Mittwoch

    Zeit Temperatur Niederschläge Wind Luftdruck Luftfeuchtigkeit
    00:00 +12°C° 0 mm 2 m/S 753 mmHg 39%
    01:00 +10°C° 0 mm 2 m/S 753 mmHg 41%
    02:00 +10°C° 0 mm 2 m/S 753 mmHg 43%
    03:00 +9°C° 0 mm 3 m/S 754 mmHg 45%
    04:00 +9°C° 0 mm 3 m/S 754 mmHg 47%
    05:00 +9°C° 0 mm 3 m/S 754 mmHg 48%
    06:00 +9°C° 0 mm 3 m/S 755 mmHg 50%
    07:00 +9°C° 0 mm 3 m/S 755 mmHg 50%
    08:00 +9°C° 0 mm 2 m/S 756 mmHg 50%
    09:00 +10°C° 0 mm 2 m/S 756 mmHg 50%
    10:00 +11°C° 0 mm 3 m/S 756 mmHg 47%
    11:00 +11°C° 0 mm 3 m/S 756 mmHg 44%
    12:00 +12°C° 0 mm 3 m/S 756 mmHg 42%
    13:00 +12°C° 0,1 mm 4 m/S 756 mmHg 43%
    14:00 +12°C° 0,1 mm 4 m/S 756 mmHg 44%
    15:00 +12°C° 0,1 mm 4 m/S 756 mmHg 45%
    16:00 +12°C° 0 mm 4 m/S 757 mmHg 47%
    17:00 +11°C° 0 mm 3 m/S 757 mmHg 50%
    18:00 +10°C° 0 mm 3 m/S 758 mmHg 53%
    19:00 +10°C° 0 mm 3 m/S 759 mmHg 54%
    20:00 +9°C° 0 mm 3 m/S 759 mmHg 54%
    21:00 +9°C° 0 mm 2 m/S 760 mmHg 55%
    22:00 +9°C° 0 mm 2 m/S 760 mmHg 57%
    23:00 +8°C° 0 mm 2 m/S 760 mmHg 59%

    25 Januar, Donnerstag

    Zeit Temperatur Niederschläge Wind Luftdruck Luftfeuchtigkeit
    00:00 +8°C° 0 mm 2 m/S 761 mmHg 61%
    01:00 +7°C° 0 mm 2 m/S 761 mmHg 63%
    02:00 +8°C° 0 mm 1 m/S 762 mmHg 65%
    03:00 +7°C° 0 mm 1 m/S 762 mmHg 68%
    04:00 +7°C° 0 mm 1 m/S 762 mmHg 70%
    05:00 +6°C° 0 mm 1 m/S 763 mmHg 72%
    06:00 +6°C° 0 mm 1 m/S 763 mmHg 74%
    07:00 +6°C° 0 mm 1 m/S 764 mmHg 74%
    08:00 +7°C° 0 mm 1 m/S 764 mmHg 73%
    09:00 +7°C° 0 mm 1 m/S 765 mmHg 73%
    10:00 +8°C° 0 mm 1 m/S 765 mmHg 70%
    11:00 +7°C° 0 mm 2 m/S 765 mmHg 66%
    12:00 +8°C° 0 mm 2 m/S 765 mmHg 63%
    13:00 +8°C° 0 mm 2 m/S 765 mmHg 62%
    14:00 +8°C° 0 mm 2 m/S 765 mmHg 62%
    15:00 +8°C° 0 mm 2 m/S 765 mmHg 62%
    16:00 +8°C° 0,1 mm 2 m/S 765 mmHg 66%
    17:00 +7°C° 0,1 mm 2 m/S 765 mmHg 70%
    18:00 +7°C° 0,1 mm 2 m/S 766 mmHg 74%
    19:00 +7°C° 0,2 mm 3 m/S 766 mmHg 75%
    20:00 +5°C° 0,2 mm 3 m/S 766 mmHg 76%
    21:00 +5°C° 0,2 mm 3 m/S 767 mmHg 77%
    22:00 +4°C° 0,2 mm 3 m/S 767 mmHg 78%
    23:00 +4°C° 0,2 mm 3 m/S 767 mmHg 79%
    Mehr zeigen